Other Public Products
Issued by NWS Grand Forks, ND

Home | Current Version | Previous Version | Text Only | Print | Product List | Glossary On
Versions: 1 2 3 4 5 6 7 8 9 10 11 12 13 14 15 16 17 18 19 20 21 22 23 24 25 26 27 28 29 30 31 32 33 34 35 36 37 38 39 40 41 42 43 44 45 46 47 48 49 50
000
FPUS83 KFGF 271310
OPUFGF
PRAIRIE TO PINES WEATHER ROUNDUP
NATIONAL WEATHER SERVICE EASTERN NORTH DAKOTA/GRAND FORKS ND
800 AM CDT SAT AUG 27 2016

 **SATELLITE DATA USED TO AUGMENT SKY COVER AT AUTOMATED STATIONS**
 *****  WEATHER ACROSS EASTERN NORTH DAKOTA  *****

CITY           SKY/WX    TMP DP  RH WIND       PRES   REMARKS
GRAND FORKS    LGT RAIN  60  58  92 SE15      29.94F FOG
GRAND FORKS AF CLOUDY    59  57  94 S12       29.94R
GRAND CITY NWS   N/A     57 N/A N/A SE6         N/A
BUXTON           N/A     43  60 100 W6          N/A
DEVILS LAKE    NOT AVBL
FARGO          CLOUDY    62  58  86 SE10      29.96F
WAHPETON ARPT  CLOUDY    59  55  88 SE7       29.99F
$$

 *****  WEATHER ACROSS CENTRAL AND WESTERN NORTH DAKOTA  *****

CITY           SKY/WX    TMP DP  RH WIND       PRES   REMARKS
JAMESTOWN      CLOUDY    58  57  97 S5        29.94S
BISMARCK       CLEAR     54  52  93 W5        29.95R
MINOT          MOCLDY    54  52  93 S3        29.90R
MINOT AFB      PTCLDY    48  47  95 SW2       29.90R
GARRISON         N/A     52  50  93 SW5       29.92R
WILLISTON      CLEAR     47  43  86 CALM      29.92S
DICKINSON      CLEAR     49  45  86 W7        29.93R
HETTINGER        N/A     45  44  97 CALM      29.98R FOG
$$

 *****  OTHER OBSERVATIONS NORTHEAST NORTH DAKOTA  *****

CITY           SKY/WX    TMP DP  RH WIND       PRES   REMARKS
WALHALLA       NOT AVBL
LANGDON        FAIR      54  54 100 S10       29.92S
CAVALIER       FAIR      54  52  94 S7        29.93S
GRAFTON        FAIR      57  57 100 S9        29.95F
CANDO          NOT AVBL
FORT TOTTEN      N/A     53  51  91 SE5       29.95S
ROLLA          PTSUNNY   54  54 100 SW6       29.92R
RUGBY          NOT AVBL
 ***** THE ABOVE OBSERVATIONS ARE NON NWS ARE NOT QUALITY
        CONTROLLED AND MAY MIS-REPORT RAIN FOR SNOW...
$$

 *****  OTHER OBSERVATIONS SOUTHEAST NORTH DAKOTA *****

CITY           SKY/WX    TMP DP  RH WIND       PRES   REMARKS
COOPERSTOWN    NOT AVBL
VALLEY CITY    LGT RAIN  59  59 100 S10       29.97S
OAKES            N/A    N/A N/A N/A MISG        N/A
GWINNER        PTSUNNY   61  61 100 SE5       29.97S
SHEYENNE NWR     N/A     60  58  94 S7        29.95S
BUFFALO          N/A     60  58  92 S9          N/A
WYNDMERE       NOT AVBL
 ***** THE ABOVE OBSERVATIONS ARE NON NWS ARE NOT QUALITY
       CONTROLLED AND MAY MIS-REPORT RAIN FOR SNOW...
$$

  *****  WEATHER ACROSS NORTHERN MINNESOTA  *****

CITY           SKY/WX    TMP DP  RH WIND       PRES   REMARKS
FLAG ISLAND    MOSUNNY   64  55  72 CALM      29.98S HAZE
WARROAD        CLOUDY    61  55  82 S7        29.99S
ROSEAU         CLOUDY    61  54  77 S7        29.97F
HALLOCK        CLOUDY    57  54  88 S7        29.94S
THF RVR FALLS  LGT RAIN  60  57  89 S8        29.99S
HALSTAD          N/A     61  59  94 S9          N/A
FOSSTON        RAIN      57  55  94 SE6       30.01S
BAUDETTE       CLOUDY    59  56  89 S6        30.01S
WASKISH        CLOUDY    61  57  88 S5        30.03F
CROOKSTON      LGT RAIN  59  57  94 S7          N/A
$$
  *****  WEATHER ACROSS CENTRAL AND WEST MINNESOTA  *****

CITY           SKY/WX    TMP DP  RH WIND       PRES   REMARKS
BEMIDJI        CLOUDY    59  57  94 SE7       30.04S
PARK RAPIDS    CLOUDY    60  56  86 SE8       30.05S
WADENA         NOT AVBL
DETROIT LAKES  PTSUNNY   61  59  94 SE9       30.02F
MOORHEAD       CLOUDY    61  57  88 SE9       29.98F
FERGUS FALLS   CLOUDY    63  57  82 SE9       30.02F
ELBOW LAKE     CLOUDY    60  58  94 E7        30.02F
MORRIS MN      CLOUDY    61  59  94 SE7       30.02S
STAPLES        CLOUDY    57  55  94 SE3       30.05F
WHEATON        CLOUDY    63  61  94 SE7       30.02S
$$
  *****  WEATHER ELSEWHERE ACROSS MINNESOTA  *****

CITY           SKY/WX    TMP DP  RH WIND       PRES   REMARKS
DULUTH         CLOUDY    59  57  93 E5        30.11R
INTRNTL FALLS  MOSUNNY   59  55  87 VRB5      30.05S
ELY            PTSUNNY   57  54  88 CALM      30.10S
CLOQUET        RAIN      57  54  88 CALM      30.10F
BRAINERD       CLOUDY    59  57  93 SE6       30.07S
HIBBING        LGT RAIN  54  53  97 CALM      30.10R
ALEXANDRIA     CLOUDY    60  57  89 SE8       30.06S
SAINT CLOUD    LGT RAIN  59  59 100 E5        30.07S
MINNEAPOLIS    LGT RAIN  64  59  83 SE7       30.07S
$$

  *****  WEATHER ACROSS SOUTH DAKOTA  *****

CITY           SKY/WX    TMP DP  RH WIND       PRES   REMARKS
SIOUX FALLS    CLOUDY    62  62 100 E5        30.02S
BROOKINGS      CLOUDY    59  57  93 SE6       30.02F
WATERTOWN      CLOUDY    62  59  90 SE9       30.01S
HURON          FOG       60  60 100 SE9       29.98R VSB 3/4
SISSETON         N/A     62  60  93 S10       29.98S
ABERDEEN       PTSUNNY   60  58  92 S8        29.97R
MITCHELL       CLOUDY    63  61  93 SE9       30.00S
PIERRE         CLEAR     56  55  97 S6        29.96S
MOBRIDGE       CLEAR     56  52  86 CALM      29.94R
RAPID CITY     PTCLDY    54  52  93 SE6       30.00S
$$

  *****  SOME WEATHER IN NEARBY STATES *****

CITY           SKY/WX    TMP DP  RH WIND       PRES   REMARKS
GLASGOW MT     CLEAR     48  43  82 E8        29.87S
GREAT FALLS MT PTCLDY    59  35  40 S13       29.84S
CHEYENNE WY    CLOUDY    49  41  74 W7        30.16R
SCOTTSBLUFF NE FOG       54  53  97 SE6       30.07R VSB<1/4
OMAHA NE       CLOUDY    67  65  93 S5        30.02R FOG
DES MOINES IA  FOG       65  63  93 CALM      30.03R VSB 1
DAVENPORT IA   CLOUDY    71  69  93 S7        30.04S
CHICAGO IL     LGT RAIN  70  69  97 S6        30.07F
EAU CLAIRE WI  MOSUNNY   63  58  83 SE8       30.09S
LA CROSSE WI   CLOUDY    64  61  90 E6        30.07F
$$

  *****  SOME NATIONAL WEATHER *****

CITY           SKY/WX    TMP DP  RH WIND       PRES   REMARKS
LA GUARDIA NY  MOSUNNY   79  63  57 NE8       30.18R
RALEIGH NC     MOSUNNY   82  74  76 W3        30.12S
ATLANTA GA     MOSUNNY   78  71  79 VRB3      30.13R
NEW ORLEANS LA CLOUDY    83  76  79 E9        29.97R THUNDER HX  91
OKLAHOMA CITY  CLOUDY    72  70  93 SE8       30.04R
ALBUQUERQUE NM PTCLDY    60  50  69 CALM      30.20R
SALT LAKE CITY PTCLDY    66  40  38 SE8       30.05R
LOS ANGELES CA CLOUDY    66  57  72 VRB3      29.96S
BOISE ID       CLEAR     60  33  36 SE5       29.93R
SEATTLE WA     PTCLDY    61  53  75 SW13      29.82R
$$

*** WEATHER ACROSS MANITOBA...SASKATCHEWAN AND ONTARIO ***
                ***ONTARIO***

CITY           SKY/WX    TMP DP  RH WIND       PRES   REMARKS
GERALDTON      CLOUDY    55  52  88 S7        30.15R
THUNDER BAY    PTSUNNY   52  52 100 CALM      30.13S
SIOUX LOOKOUT  PTSUNNY   61  55  82 S5        30.04R
TORONTO        MOSUNNY   70  59  68 SE3       30.21F
BIG TROUT LK   MOSUNNY   59  54  82 S8        29.95R
PICKLE LAKE    MOSUNNY   59  54  82 S9        30.02R
DRYDEN         CLOUDY    63  55  77 S8        30.04R
KENORA         PTSUNNY   61  55  82 S7        30.00S
$$
                *** MANITOBA***

CITY           SKY/WX    TMP DP  RH WIND       PRES   REMARKS
BRANDON        MOSUNNY   50  48  93 W5        29.88R
DAUPHIN        SUNNY     55  52  88 SW6       29.83S
ISLAND LAKE    PTSUNNY   61  55  82 S5        29.87S
PILOT MOUND      N/A     54  52  94 SW9         N/A
THE PAS        CLOUDY    57  55  94 CALM      29.80S
THOMPSON       FOG       52  50  93 VRB2      29.85R VSB 1/4
WINNIPEG       PTSUNNY   55  52  88 S13       29.91S
LYNN LAKE      MOSUNNY   48  48 100 MISG      29.84S
CHURCHILL      MOSUNNY   50  46  87 S9        29.88S
GILLAM         CLOUDY    52  50  93 E6        29.88R
$$
                ***SASKATCHEWAN***

CITY           SKY/WX    TMP DP  RH WIND       PRES   REMARKS
ESTEVAN        PTCLDY    48  46  93 SW8       29.90S
KINDERSLEY     MOCLDY    52  45  76 SE15      29.72F
LLOYDMINSTER   MOCLDY    54  48  82 S9        29.69S
PRINCE ALBERT  FOG       52  52 100 SE6       29.82S VSB 1/8
REGINA         PTCLDY    45  45 100 SE5       29.87S
YORKTON        CLOUDY    55  54  94 SW6       29.84S   C1F1C2F2C3F3C4F4C5F5C6F6C7F7C8F8C9F9CaFaCbFbCcFcCdFdCe!



USA.gov is the U.S. government's official web portal to all federal, state and local government web resources and services.